World > North America > United States > Mississippi

Hourly Campbell, MS Regional Weather

Feedback E-mail the Weather

Quick WX

Campbell, MS Weather Maps

°F °C°F °C
Campbell Weather Map
UTC Time: 6/28/2022, 18:21
Your Time:

Campbell, MS Regional Weather

Expires:202206281900;;341089
ASUS44 KJAN 281810
RWRMS 

MISSISSIPPI HOURLY WEATHER ROUNDUP
NATIONAL WEATHER SERVICE JACKSON MS
100 PM CDT TUE JUN 28 2022

NOTE: "FAIR: INDICATES FEW OR NO CLOUDS BELOW 12,000 FEET WITH NO
SIGNIFICANT WEATHER AND/OR OBSTRUCTIONS TO VISIBILITY.


MSZ003>006-009-014>017-022>024-029>033-037>039-281900-
NORTHEAST MISSISSIPPI
  
CITY           SKY/WX    TMP DP  RH WIND       PRES   REMARKS
ABERDEEN       FAIR      88  68  51 VRB6      30.14F HX  91           
COLUMBUS AFB   MOSUNNY   87  65  47 NE5       30.10F                  
6HR MIN TEMP:  69; 6HR MAX TEMP:  88;                                

CORINTH        SUNNY     84  54  34 VRB5      30.17F                  
GOLDN TRIANGLE PTSUNNY   87  66  49 CALM      30.14S                  
TUPELO         SUNNY     90  59  35 N7        30.14F                  
6HR MIN TEMP:  72; 6HR MAX TEMP:  91;                                

$$


SKY/WX - Weather  TMP - Temperature  DP - Dew Point  RH - Humidity
WIND - Wind Direction/Speed PRES - Barometric Pressure VSB - Visibility
WCI - Wind Chill Index E13G22 Wind - East Wind 13 mph/Gusts of 22 mph

Trending Headlines

Campbell Radar Loop



Campbell Quick Facts


National Two Day Weather Forecast


E-mail the Campbell Weather Forecast

Voice your opinion or tell us about page issues...